This is the latest recevied weather packets stored in our database for station/object OE6JVE-13. If no packets are shown the sender has not sent any weather packets the latest 10 day(s).
| Time | Temp. | Humidity | Pressure | Rain* | Wind** | Luminosity | Snow |
|---|---|---|---|---|---|---|---|
| 1788538240 | 26.67° C | 49% | 1006.5 hPa | 0 mm | - | - | - |
| 1788537649 | 27.22° C | 46% | 1006.6 hPa | 0 mm | - | - | - |
| 1788537055 | 27.78° C | 41% | 1006.6 hPa | 0 mm | - | - | - |
| 1788536623 | 29.44° C | 37% | 1006.7 hPa | 0 mm | - | - | - |
| 1788535839 | 31.11° C | 35% | 1006.6 hPa | 0 mm | - | - | - |
| 1788535248 | 31.67° C | 33% | 1006.6 hPa | 0 mm | - | - | - |
| 1788534654 | 32.22° C | 33% | 1006.8 hPa | 0 mm | - | - | - |
| 1788534062 | 32.78° C | 31% | 1006.7 hPa | 0 mm | - | - | - |
| 1788533470 | 32.78° C | 29% | 1006.6 hPa | 0 mm | - | - | - |
| 1788532877 | 32.78° C | 28% | 1006.7 hPa | 0 mm | - | - | - |
| 1788532220 | 32.78° C | 28% | 1006.8 hPa | 0 mm | - | - | - |
| 1788531628 | 33.33° C | 29% | 1006.8 hPa | 0 mm | - | - | - |
| 1788531229 | 33.33° C | 24% | 1007 hPa | 0 mm | - | - | - |
| 1788530644 | 33.33° C | 23% | 1007.1 hPa | 0 mm | - | - | - |
| 1788529892 | 33.33° C | 26% | 1007.1 hPa | 0 mm | - | - | - |
| 1788529258 | 33.33° C | 25% | 1007.3 hPa | 0 mm | - | - | - |
| 1788528666 | 32.78° C | 24% | 1007.3 hPa | 0 mm | - | - | - |
| 1788528075 | 32.78° C | 24% | 1007.5 hPa | 0 mm | - | - | - |
| 1788527416 | 33.33° C | 25% | 1007.6 hPa | 0 mm | - | - | - |
| 1788526825 | 32.78° C | 25% | 1007.7 hPa | 0 mm | - | - | - |
| 1788526232 | 32.78° C | 23% | 1007.8 hPa | 0 mm | - | - | - |
| 1788525641 | 32.78° C | 27% | 1007.9 hPa | 0 mm | - | - | - |
| 1788525049 | 32.22° C | 29% | 1008.3 hPa | 0 mm | - | - | - |
| 1788524456 | 32.22° C | 30% | 1008.4 hPa | 0 mm | - | - | - |
| 1788523865 | 32.22° C | 32% | 1008.6 hPa | 0 mm | - | - | - |
* Rain latest hour (hover to see other rain measurements)
** Current wind speed in m/s (hover to see current wind gust speed)